Погода в Инге

Поиск расширенной информации на нашем сайте:

Полезная информация:

Новости сайта



02.01.2020
Опубликован Долгосрочный прогноз погоды по городам России и ближнего зарубежья на январь 2020 года.
Карты: Прогноз на январь и февраль 2020 года, Сравнение прогнозируемой аномалии приземной температуры воздуха на январь 2020 года по разным моделям.




Погода в Инге - сегодня

Время (UTC), дата Ветер
(°,м/с) 
Видим.   Явления Облачность Т
(°С)
Тd
(°С)
f(%) Тe
(°С)
Pmin
(гПа)
dP
(гПа)
Po
(мм)
O2
(г/м3)
Тmin Tmax R s Состояние
почвы
21 23.11.20 360 (С) н/о  слаб. ливневой снег  10/10 600 м кучево-дожд. 
[Cb cap]
-4.1 -6.5 83 -6  1035.8  1.4  725  297           
00 24.11.20 360 (С) н/о  слаб. ливневой снег  10/10 600 м кучево-дожд. 
[Cb cap]
-5.5 -7.3 87 -5  1037.4  1.1  726  299  -5.5    равномерный
мокрый или
старый снег
100% 
03 24.11.20 340 (С) 4000 м  слаб. ливневой снег  10/8 600 м кучево-дожд., верхняя 
[Cb cap|Ci fib]
-5.3 -9.1 75 -5  1038.6  1.1  727  300  -5.7         
06 24.11.20 тихо ()   10 км  слаб. ливневой снег  10/8 600 м кучево-дожд., верхняя 
[Cb cap|Cs]
-4.6 -10.4 64 -5  1038.1  -0.3  727  299           
09 24.11.20 тихо ()   20000 м  в посл. час ливневой снег  9/3 600 м кучево-дожд., средняя 
[Cb cap|Ac trans]
-5.7 -8.4 81 -6  1038.9  0.4  727  300           
12 24.11.20 тихо ()   н/о  {ливн. осадки}  9/0 кучево-дожд., средняя 
[Cb cap|Ac trans]
-7.6 -8.8 91 -8  1040.2  0.8  728  303    -4.1  0.6     
15 24.11.20 тихо ()   н/о    10/0 средняя 
[Ac As]
-8.4 -9.2 94 -8  1041.1  0.8  728  304           
18 24.11.20 040 (СВ) н/о    10/0 средняя 
[Ac As]
-8.6 -9.4 94 -8  1041.3  0.1  728  304           
21 24.11.20 030 (СВ) н/о    10/0 средняя 
[Ac As]
-8.6 -9.5 93 -8  1041  -0.2  728  304           
00 25.11.20 360 (С) н/о  слаб. снег  10/0 средняя 
[As op]
-8.7 -10.2 89 -8  1041.1  728  304  -9.1    0.1  равномерный
мокрый или
старый снег
100% 
03 25.11.20 060 (СВ) 20000 м  {снег}  9/0 средняя 
[Ac trans]
-8 -10.9 80 -8  1041.7  0.8  729  304           
06 25.11.20 070 (В) 20000 м  {снег}  9/1 1000 м средняя 
[Sc|Ac trans]
-7 -12.6 64 -8  1040.9  -0.5  728  302           
09 25.11.20 020 (С) 20000 м    9/0 средняя, верхняя 
[Ac trans|Ci sp]
-8.9 -12.9 73 -9  1042  0.5  729  305           
12 25.11.20 тихо ()   н/о    10/0 средняя 
[As op]
-9.9 -12.1 84 -10  1043.4  730  306    -6.9  0.0     
15 25.11.20 тихо ()   н/о    9/0 средняя 
[Ac trans]
-10.7 -12.6 86 -11  1044.1  0.5  730  307           
18 25.11.20 тихо ()   н/о    9/0 средняя 
[Ac trans]
-11.7 -12.7 92 -12  1044.5  0.1  730  308           
21 25.11.20 тихо ()   н/о  слаб. снег  10/0 средняя 
[As op]
-11.5 -12.4 93 -12  1044.4  730  308           
00 26.11.20 тихо ()   н/о  {снег}  10/0 средняя 
[Ac As]
-12.2 -13.1 93 -12  1045.6  0.9  731  309  -12.4    0.0  равномерный
мокрый или
старый снег
100% 
03 26.11.20 тихо ()   20000 м  {снег}  10/0 средняя 
[As trans]
-9.8 -11.6 87 -10  1045.9  0.9  731  307           
06 26.11.20 240 (ЮЗ) 20000 м  {снег}  10/8 600 м кучево-дожд., верхняя 
[Cb cap|Ci sp]
-7 -13.3 61 -7  1044.4  -0.7  731  303           
09 26.11.20 050 (СВ) 20000 м    9/3 600 м кучево-дожд., средняя 
[Cb cap|Ac trans]
-8.2 -12 74 -8  1045.6  0.8  731  305           
12 26.11.20 тихо ()   н/о    10/0 средняя 
[Ac As]
-9.4 -12.3 79 -9  1047.3  1.3  732  307    -5.4  0.0     
15 26.11.20 тихо ()   н/о    9/0 средняя 
[Ac trans]
-11.5 -13 89 -12  1048.2  0.3  733  309           
18 26.11.20 тихо ()   н/о    10/0 средняя, верхняя 
[Ac trans|Ci sp]
-14.8 -15.6 94 -15  1049.3  0.2  733  314           
21 26.11.20 250 (З) н/о    10/0 средняя 
[Ac As]
-13.7 -15.8 84 -16  1049.1  0.1  733  312           
Время (UTC), дата Ветер
(°,м/с) 
Видим.   Явления Облачность Т
(°С)
Тd
(°С)
f(%) Тe
(°С)
Pmin
(гПа)
dP
(гПа)
Po
(мм)
O2
(г/м3)
Тmin Tmax R s Состояние
почвы

Для получения пояснительной информации подведите курсор к названию столбца.

ПОГОДА в Инге - архив

Всё, что Вы хотите узнать о погоде в Инге - удобно и подробно!

Выберите нужную дату (начиная с 1 января 2019* года) и нажмите кнопку "Найти".
Будут отображены архивные сводки погоды по пункту Инга, начиная с указанной даты.


Отображать данные в формате CSV (для использования в таблицах Excel)


Внимание! Наш архив погоды предназначен исключительно для личного некоммерческого использования в познавательных целях. Если Вам необходимы официальные справки о состоянии погоды (для производственных, юридических, коммерческих и т.п. целей), обращайтесь в органы Росгидромета.

*Примечание: данная дата относится к архиву по метеостанциям СССР (Россия, СНГ, Балтия).
Архив по метеостанциям Зарубежной Европы и Азии (кроме Китая) хранится 10 дней, по другим регионам земного шара (Китай, Африка, Америка, Австралия, Океания) - 1 день.

Инга - район местоположения метеостанции


Название, широта, долгота, высота метеостанции:
Инга 53°ш. 102°д. 543 м над ур. моря [Российская Федерация]

Дополнительная информация

В oтличие oт бoльшинства пoгoдных сайтoв мы публикуем пoдрoбную метеoинфoрмацию в детальнoм прoфессиoнальнoм фoрмате.

Характеристики температуры и влажнoсти вoздуха измеряются на высoте 2 м в тени вдали oт зданий и деревьев.
Скoрoсть ветра измеряется на высoте 10 м (на урoвне рoста челoвека скoрoсть ветра ниже в 1.5-2 раза). Если метеoстанция нахoдится в гoрoде или в лесу, тo скoрoсть ветра занижена на 2-4 м/с пo сравнению с oткрытым местoм. Скoрoсть ветра над акватoриями крупных рек и oзёр, а также на вершинах хoлмoв на 2-5 м/с выше, чем в oбычных услoвиях.
Атмoсфернoе давление в разных тoчках местнoсти мoжет значительнo oтличаться oт давления на метеoстанции, в зависимoсти oт услoвий рельефа (при пoдъёме на 10 м давление пoнижается примернo на 1 мм рт.ст.).